Wind_Speed
37 36 36 36 35 34 33 32 31 31 31 31 30 29 27 25 24 24 26 25 24 22 20 18 18 17 15 15 15 16 15 14 13 13 15 15 15 15 15 15 13 13
39 38 37 37 36 35 33 32 31 31 31 31 31 30 29 27 26 25 26 26 25 23 20 19 19 18 16 16 16 16 16 15 14 15 16 16 16 16 17 16 15 14
42 40 39 38 37 35 34 33 32 31 31 30 31 31 31 30 28 27 26 26 26 23 21 20 20 19 18 17 17 17 17 16 15 15 16 16 16 17 17 17 16 15
43 42 41 39 37 36 35 34 34 33 32 32 31 31 31 31 30 29 27 27 27 25 22 21 21 20 19 18 18 19 19 18 16 16 17 17 17 17 18 18 17 16
43 42 41 40 38 36 36 36 36 34 34 33 32 31 31 31 31 30 29 28 28 27 24 23 22 22 21 20 20 20 20 20 18 17 18 18 18 18 19 19 18 17
45 43 42 41 39 38 38 37 36 35 35 34 34 33 32 32 32 31 31 30 29 28 27 25 24 23 23 22 22 22 22 22 20 19 19 19 19 19 19 20 19 18
47 45 43 42 41 40 39 37 37 37 36 35 35 35 34 33 33 32 32 31 31 30 29 27 25 24 24 24 24 24 24 23 22 21 21 20 20 20 20 21 21 20
47 46 45 43 42 42 41 39 38 38 37 36 36 36 36 35 35 34 33 32 32 31 30 29 27 26 25 25 25 25 25 25 25 23 23 22 21 21 21 21 22 22
48 47 46 45 44 44 43 40 39 38 38 38 37 36 37 37 36 36 35 35 34 32 31 30 29 27 27 27 27 27 26 26 26 25 24 23 23 23 22 22 23 23
50 49 48 48 47 46 44 42 39 38 38 39 38 37 37 38 38 37 37 37 37 35 34 32 31 30 29 29 29 28 27 27 27 26 26 24 24 23 23 23 24 24
51 50 50 50 49 48 46 43 41 40 39 39 39 38 38 38 39 39 38 39 39 38 36 34 33 32 31 30 30 29 28 28 27 27 26 26 25 24 23 24 24 24
52 52 52 51 50 48 46 44 42 41 40 40 39 39 39 39 40 40 40 40 39 39 38 36 35 34 33 32 31 30 29 28 28 28 27 27 26 25 24 23 24 24
53 53 52 51 50 48 46 45 43 42 42 41 40 39 39 40 41 42 41 41 40 40 39 37 36 35 35 33 32 31 29 29 29 29 28 27 27 26 25 24 24 24
53 52 51 50 49 48 46 45 44 43 42 41 40 40 40 41 42 42 42 41 41 41 40 39 37 37 36 35 34 32 31 30 30 29 29 28 28 27 25 25 24 24
52 52 51 50 49 48 47 46 45 44 43 42 41 41 41 41 41 42 42 42 42 42 41 40 39 39 37 36 35 34 32 31 31 30 29 29 28 27 26 26 26 24
53 52 51 51 50 49 47 46 45 44 44 43 42 42 41 41 41 42 43 43 43 43 42 42 41 40 38 36 35 34 32 31 31 30 29 28 28 28 28 28 27 25
53 53 52 51 50 49 48 47 46 45 45 44 43 42 41 41 42 43 43 43 43 43 43 42 42 40 38 37 36 34 32 31 31 31 29 27 27 28 28 29 28 26
53 53 52 51 50 49 49 48 47 46 46 45 45 44 43 42 43 44 44 43 44 44 43 43 42 39 37 37 36 33 31 30 30 30 29 27 26 27 28 28 28 28
53 53 53 52 51 50 49 49 49 48 47 47 46 45 44 44 44 44 44 44 44 44 44 43 41 39 37 37 36 33 30 29 29 30 29 27 25 25 27 27 28 30
53 52 53 52 51 50 50 50 50 49 47 47 47 47 47 46 45 45 45 45 45 45 44 43 41 40 38 37 35 32 30 29 29 30 29 26 24 24 25 27 30 32
53 53 53 52 51 51 50 51 51 49 48 48 48 48 48 48 47 46 46 46 45 45 44 43 43 41 40 38 36 33 31 30 30 31 28 25 24 23 25 29 33 33
53 53 53 52 51 51 51 51 51 50 49 49 49 49 49 49 48 47 47 47 46 46 45 45 45 44 42 40 37 35 33 31 31 30 28 26 25 24 27 32 33 31
52 52 53 52 51 51 51 51 51 50 50 50 49 49 50 50 50 49 48 48 47 47 47 47 47 46 44 42 39 37 35 33 31 30 29 28 27 26 28 31 31 30
51 51 52 52 51 51 50 50 50 50 50 50 50 50 50 50 49 49 48 48 48 48 47 47 48 47 46 44 41 38 36 33 31 28 27 28 28 28 30 32 32 31
49 50 51 51 51 50 49 49 49 49 49 49 49 49 49 49 49 49 49 48 48 48 47 47 48 47 46 45 42 39 36 33 31 28 27 27 28 30 32 32 32 31
49 49 50 50 50 49 48 48 48 49 50 50 49 49 49 49 49 49 49 48 48 47 47 48 47 47 47 45 42 39 36 33 31 29 28 27 27 28 30 29 28 27
Wind_Direction
228 229 230 232 233 234 234 236 238 239 239 238 239 242 243 245 244 243 242 240 240 241 242 244 244 243 245 247 251 253 253 250 247 247 249 250 251 252 255 255 255 256
228 229 231 232 233 233 234 235 238 240 240 240 241 243 245 246 246 245 244 242 241 242 243 243 243 242 242 244 249 253 253 248 245 245 248 251 253 254 255 256 255 255
229 229 230 232 234 234 234 234 237 239 240 241 241 242 244 245 246 245 245 244 243 243 244 244 242 240 240 242 247 252 254 250 246 246 249 252 254 256 256 254 252 252
231 231 232 233 235 236 236 235 236 237 238 240 240 240 241 243 244 244 244 244 244 244 245 245 242 240 240 242 246 252 255 253 248 245 247 250 253 255 255 252 249 250
234 233 233 234 235 236 237 237 237 237 237 238 238 238 239 240 242 243 243 244 244 245 246 245 243 241 241 242 246 251 255 256 252 246 244 247 250 253 255 254 250 250
235 235 235 235 235 236 237 238 237 237 237 237 237 237 237 238 240 241 242 244 245 246 246 246 246 244 242 243 246 249 253 256 256 251 246 245 247 250 254 255 254 251
235 236 236 236 236 237 238 238 239 238 238 237 237 237 237 237 239 240 241 243 245 246 248 248 247 246 245 245 246 248 251 254 256 255 251 247 245 247 250 254 256 253
236 237 237 237 237 237 238 238 239 240 240 239 238 238 237 237 238 240 241 242 243 245 247 248 248 247 246 246 247 249 251 253 255 256 255 251 247 246 247 251 255 255
236 237 238 238 238 238 239 239 239 240 241 241 239 238 238 238 238 239 240 242 243 244 246 247 247 247 246 246 247 249 251 253 255 256 258 256 253 251 250 250 253 255
236 237 238 238 238 239 239 240 240 241 242 242 241 239 238 238 239 239 240 241 243 243 244 245 246 246 246 246 248 249 251 253 255 256 258 259 258 257 256 255 254 256
236 236 237 238 238 239 240 240 241 241 242 243 243 241 239 238 239 239 239 240 242 243 243 244 245 246 246 247 248 250 251 253 254 255 257 259 260 260 261 261 261 260
236 236 237 237 238 239 240 241 241 241 242 243 244 242 241 239 239 239 239 240 241 242 243 243 243 244 246 247 248 249 251 253 254 254 255 258 260 261 261 263 265 265
236 237 237 238 238 240 241 241 241 241 242 243 244 243 242 240 239 239 239 240 241 242 243 243 243 243 244 246 247 248 249 252 254 254 255 256 259 261 261 262 263 265
236 237 237 238 239 240 241 241 241 241 242 243 244 244 242 240 239 239 239 240 241 242 242 243 243 243 243 244 245 246 247 249 252 253 254 255 257 259 261 262 263 264
236 235 236 237 238 239 240 240 241 241 241 242 243 243 243 241 240 239 239 240 241 242 242 242 242 242 241 242 243 245 246 248 250 251 253 254 255 257 259 261 262 264
234 234 235 236 237 238 239 240 240 240 240 241 242 242 242 241 241 240 239 239 240 241 242 242 242 241 241 241 242 244 246 248 250 251 252 253 255 257 259 261 262 263
233 233 234 235 237 238 238 238 239 239 239 240 241 241 241 241 241 240 239 238 239 240 241 241 242 241 241 242 242 243 245 247 250 252 252 253 254 256 258 260 262 262
233 233 234 235 237 237 237 238 238 238 238 239 239 240 240 240 240 239 239 238 239 239 240 241 242 242 242 242 242 242 243 246 249 252 252 251 252 254 257 259 261 262
233 233 234 235 236 236 236 237 237 238 238 239 239 239 240 240 240 239 239 238 238 239 240 241 242 243 242 243 243 242 242 243 247 250 251 251 250 252 255 257 259 260
232 233 234 235 236 236 236 236 237 238 239 239 239 240 240 240 240 239 238 238 238 239 240 241 243 243 243 243 243 242 241 242 244 248 249 249 249 250 253 257 258 259
233 234 235 235 234 234 235 236 237 238 239 239 240 240 241 241 241 241 240 239 239 239 240 242 242 243 243 243 243 242 241 240 242 246 247 247 248 249 252 256 259 261
234 234 234 233 232 233 234 235 237 238 238 238 239 241 242 242 242 242 242 241 240 240 241 242 243 243 244 244 243 243 241 240 241 244 245 244 244 245 248 253 257 260
234 234 234 233 232 232 235 236 238 239 239 238 238 240 241 242 243 243 244 244 243 242 242 243 243 244 245 245 244 242 241 239 239 242 245 244 242 240 244 249 253 254
236 235 235 234 233 235 237 238 239 240 239 239 239 240 241 242 243 244 245 245 245 244 244 244 244 245 246 245 244 242 241 240 239 239 242 244 246 245 245 248 252 253
238 236 236 235 236 238 240 240 241 241 240 240 240 241 242 243 243 244 245 245 245 245 246 244 243 245 246 245 244 243 242 241 240 237 235 238 244 248 250 253 256 255
239 238 238 238 239 242 242 242 241 240 239 240 240 241 242 242 242 243 244 245 245 245 246 245 243 244 246 246 245 245 243 241 239 236 232 231 234 241 248 253 252 246
Height
1523 1525 1527 1529 1532 1534 1536 1538 1540 1542 1544 1546 1547 1549 1551 1553 1554 1556 1557 1558 1560 1561 1562 1563 1564 1565 1566 1567 1567 1568 1568 1569 1570 1571 1571 1572 1573 1573 1574 1575 1576 1577
1520 1522 1524 1526 1529 1531 1533 1535 1537 1539 1541 1543 1545 1547 1549 1551 1552 1554 1555 1556 1558 1559 1560 1561 1562 1563 1564 1565 1566 1566 1567 1567 1568 1569 1570 1571 1572 1572 1573 1574 1574 1575
1516 1518 1521 1523 1525 1527 1530 1532 1534 1536 1538 1540 1542 1544 1546 1548 1550 1551 1553 1554 1556 1557 1558 1559 1561 1562 1563 1563 1564 1565 1565 1566 1567 1568 1569 1569 1570 1571 1572 1573 1573 1573
1512 1514 1517 1519 1521 1524 1527 1529 1531 1533 1535 1537 1539 1542 1543 1545 1547 1549 1550 1552 1553 1555 1556 1557 1559 1560 1561 1562 1562 1563 1563 1564 1565 1566 1567 1568 1569 1569 1570 1571 1571 1572
1508 1510 1513 1516 1518 1521 1523 1524 1527 1529 1532 1534 1536 1539 1541 1542 1544 1545 1547 1549 1551 1552 1554 1555 1557 1558 1559 1560 1560 1561 1561 1562 1563 1564 1565 1566 1567 1568 1569 1570 1570 1571
1504 1506 1509 1512 1515 1517 1519 1520 1523 1525 1528 1531 1533 1536 1538 1539 1541 1542 1544 1546 1548 1549 1551 1552 1554 1555 1557 1557 1558 1559 1559 1560 1561 1562 1563 1564 1565 1566 1567 1568 1569 1569
1500 1503 1506 1508 1511 1513 1515 1517 1519 1522 1524 1527 1530 1532 1534 1536 1538 1539 1541 1543 1544 1546 1548 1549 1551 1553 1554 1555 1555 1556 1557 1558 1559 1560 1561 1562 1563 1564 1565 1567 1567 1567
1497 1499 1502 1505 1507 1509 1511 1513 1516 1518 1521 1524 1526 1528 1530 1532 1534 1536 1537 1539 1541 1542 1544 1546 1548 1549 1551 1552 1552 1553 1554 1556 1557 1558 1559 1560 1561 1562 1563 1565 1566 1566
1493 1495 1498 1500 1503 1505 1507 1510 1513 1515 1517 1519 1522 1524 1526 1528 1530 1532 1534 1535 1537 1539 1540 1542 1544 1546 1547 1548 1549 1550 1552 1553 1555 1556 1557 1558 1559 1560 1561 1562 1563 1564
1489 1491 1494 1496 1498 1501 1503 1507 1510 1512 1514 1515 1518 1520 1522 1524 1526 1528 1530 1531 1532 1534 1536 1538 1540 1541 1543 1544 1546 1547 1549 1551 1552 1554 1555 1556 1556 1557 1558 1560 1561 1562
1484 1487 1489 1491 1494 1497 1500 1503 1506 1508 1510 1511 1514 1516 1518 1520 1521 1523 1525 1526 1527 1529 1532 1534 1536 1537 1538 1540 1542 1544 1546 1548 1549 1551 1552 1553 1554 1555 1556 1557 1558 1560
1479 1481 1483 1486 1489 1493 1496 1499 1502 1504 1506 1507 1509 1511 1513 1515 1516 1518 1520 1521 1523 1525 1527 1529 1531 1533 1534 1536 1538 1540 1543 1544 1546 1547 1549 1550 1551 1552 1554 1555 1556 1557
1473 1476 1478 1482 1485 1488 1492 1494 1497 1499 1500 1502 1505 1507 1508 1510 1511 1513 1515 1517 1519 1520 1522 1525 1527 1528 1529 1531 1534 1536 1539 1540 1541 1543 1545 1547 1548 1549 1551 1552 1553 1554
1467 1471 1474 1477 1481 1484 1487 1489 1491 1494 1496 1498 1500 1501 1503 1504 1506 1508 1510 1512 1514 1515 1517 1520 1521 1523 1524 1527 1529 1532 1534 1536 1537 1539 1541 1543 1545 1546 1547 1548 1549 1550
1463 1467 1470 1473 1476 1479 1481 1483 1486 1489 1491 1493 1495 1496 1498 1500 1502 1504 1505 1507 1509 1510 1512 1514 1515 1517 1519 1522 1524 1527 1530 1532 1533 1535 1538 1540 1541 1543 1544 1545 1546 1547
1459 1462 1465 1468 1471 1473 1476 1478 1481 1484 1486 1488 1489 1491 1493 1495 1497 1498 1500 1501 1503 1505 1507 1508 1509 1511 1514 1517 1520 1522 1525 1527 1529 1531 1534 1536 1538 1540 1540 1541 1542 1544
1455 1458 1460 1463 1465 1468 1471 1473 1476 1479 1481 1482 1484 1486 1488 1490 1492 1493 1494 1496 1497 1499 1501 1502 1503 1506 1509 1512 1515 1518 1521 1523 1525 1527 1530 1532 1534 1535 1536 1537 1538 1540
1450 1453 1456 1458 1461 1463 1466 1469 1472 1474 1475 1477 1479 1481 1483 1485 1486 1487 1488 1490 1492 1493 1495 1496 1498 1501 1505 1507 1510 1513 1517 1519 1521 1522 1525 1528 1530 1531 1531 1532 1533 1536
1446 1449 1451 1453 1456 1459 1462 1465 1467 1468 1470 1472 1474 1476 1479 1480 1481 1482 1483 1485 1486 1487 1489 1491 1493 1497 1500 1502 1505 1509 1512 1515 1517 1518 1520 1523 1525 1526 1526 1526 1527 1529
1442 1444 1446 1448 1451 1455 1458 1460 1461 1463 1465 1468 1470 1472 1473 1474 1475 1477 1478 1479 1480 1482 1484 1486 1489 1491 1495 1497 1501 1505 1508 1511 1513 1514 1516 1518 1520 1521 1521 1521 1522 1523
1437 1439 1441 1444 1447 1450 1453 1454 1456 1458 1461 1463 1465 1467 1468 1469 1471 1472 1473 1474 1476 1478 1480 1482 1484 1487 1490 1493 1497 1500 1504 1507 1508 1509 1512 1514 1516 1517 1517 1516 1517 1518
1431 1434 1436 1439 1443 1446 1447 1449 1451 1453 1455 1458 1461 1462 1464 1465 1467 1468 1468 1470 1472 1474 1476 1477 1479 1482 1484 1488 1492 1496 1499 1502 1504 1505 1507 1510 1511 1512 1512 1511 1512 1513
1427 1430 1432 1435 1438 1440 1442 1443 1445 1448 1450 1453 1455 1457 1458 1460 1461 1463 1464 1466 1468 1469 1471 1472 1475 1477 1480 1483 1487 1491 1494 1497 1499 1501 1502 1504 1506 1506 1506 1505 1506 1507
1423 1426 1428 1431 1433 1434 1436 1438 1440 1442 1445 1447 1449 1451 1452 1454 1456 1458 1460 1461 1463 1464 1465 1468 1471 1472 1475 1478 1482 1485 1489 1492 1495 1498 1499 1499 1499 1500 1501 1501 1502 1504
1419 1421 1423 1425 1427 1428 1430 1432 1434 1436 1439 1441 1444 1445 1447 1449 1451 1452 1454 1455 1457 1459 1461 1464 1467 1468 1470 1473 1477 1481 1485 1488 1491 1494 1496 1495 1494 1495 1496 1497 1499 1501
1415 1417 1418 1420 1421 1422 1424 1427 1429 1431 1433 1435 1437 1439 1441 1443 1445 1446 1447 1448 1450 1453 1456 1459 1462 1463 1465 1468 1472 1477 1480 1484 1487 1489 1491 1491 1492 1492 1492 1493 1495 1497